Torna al catalogo

STARLINK-34892

AttivoComunicazioniVLEO
NORAD 65350·PAYLOAD·🇺🇸 United States

Lanciato Aug 27, 2025 da Cape Canaveral Space Force Station

Loading…

Prossimi Passaggi (prossime 24 ore)

TLE

AggiornatoSource: CelesTrak SupGP

Epoca: Sep 14, 2026, 22:54 UTC

1 65350C 25189AD  26257.95465278  .00018536  00000+0  59622-3 0  2578
2 65350  53.1591  45.9509 0001377  80.7252  63.9669 15.31684115    14

Traccia STARLINK-34892 in tempo reale con AllMySat

Download on the App Store